VK4TOM-13 Weather Reports


time (UTC)temp
C
wind
direction
speed
KPH
gust
KPH
rain 1hr
cm
rain 24hr
cm
rain mn
cm
humidity
%
barometer
mb
20260510071624 23 45 1.6 6.4 0.00 0.00 0.00 70 1022.6
20260510070623 23 45 0.0 3.2 0.00 0.00 0.00 70 1022.7
20260510065622 23 34 3.2 6.4 0.00 0.00 0.00 70 1022.7
20260510064621 23 83 0.0 3.2 0.00 0.00 0.00 70 1022.6
20260510063620 23 71 1.6 1.6 0.00 0.00 0.00 70 1022.5
20260510062619 23 33 0.0 4.8 0.00 0.00 0.00 70 1022.4
20260510061617 23 12 1.6 6.4 0.00 0.00 0.00 70 1022.3
20260510060616 24 123 3.2 3.2 0.00 0.00 0.00 70 1022.1
20260510055615 24 24 0.0 6.4 0.00 0.00 0.00 70 1022.0
20260510054614 24 62 0.0 1.6 0.00 0.00 0.00 70 1021.9
20260510053613 24 81 0.0 4.8 0.00 0.00 0.00 70 1021.9
20260510052613 24 84 0.0 8.0 0.00 0.00 0.00 70 1021.8
20260510052306 24 148 8.0 8.0 0.00 0.00 0.00 70 1021.7
20260510051736 24 68 0.0 6.4 0.00 0.00 0.00 70 1021.6
20260510050735 24 103 0.0 4.8 0.00 0.00 0.00 70 1021.6
20260510045734 24 126 0.0 4.8 0.00 0.00 0.00 70 1021.9
20260510044733 24 63 1.6 3.2 0.00 0.00 0.00 70 1021.8
20260510043732 24 85 0.0 4.8 0.00 0.00 0.00 70 1021.4
20260510042730 25 31 1.6 3.2 0.00 0.00 0.00 70 1021.3
20260510041729 25 289 0.0 3.2 0.00 0.00 0.00 70 1021.6
20260510040728 25 94 0.0 4.8 0.00 0.00 0.00 70 1021.7
20260510035727 25 126 1.6 3.2 0.00 0.00 0.00 70 1022.0
20260510034726 25 15 3.2 3.2 0.00 0.00 0.00 70 1021.7
20260510032724 25 27 0.0 3.2 0.00 0.00 0.00 70 1022.0
20260510031723 25 149 1.6 3.2 0.00 0.00 0.00 70 1022.5
20260510030722 25 55 0.0 1.6 0.00 0.00 0.00 70 1022.5
20260510025721 25 50 0.0 3.2 0.00 0.00 0.00 70 1022.6
20260510024720 25 27 0.0 1.6 0.00 0.00 0.00 70 1022.4
20260510023719 25 55 0.0 1.6 0.00 0.00 0.00 70 1022.4
20260510022718 25 65 0.0 3.2 0.00 0.00 0.00 70 1022.3
20260510021717 24 45 1.6 4.8 0.00 0.00 0.00 70 1022.7
20260510020716 24 90 0.0 3.2 0.00 0.00 0.00 70 1022.7
20260510015715 24 90 1.6 4.8 0.00 0.00 0.00 70 1023.4
20260510014713 23 90 0.0 4.8 0.00 0.00 0.00 70 1023.5
20260510013712 23 108 3.2 4.8 0.00 0.00 0.00 70 1023.5
20260510012711 23 137 1.6 4.8 0.00 0.00 0.00 70 1023.5
20260510011710 23 116 3.2 4.8 0.00 0.00 0.00 70 1023.6
20260510010709 23 94 0.0 6.4 0.00 0.00 0.00 70 1023.7
20260510005708 23 110 1.6 6.4 0.00 0.00 0.00 70 1023.7
20260510004708 23 56 0.0 9.7 0.00 0.00 0.00 70 1023.6
20260510004358 22 104 8.0 8.0 0.00 0.00 0.00 70 1023.6
20260510003900 22 234 0.0 8.0 0.00 0.00 0.00 70 1023.5
20260510002859 22 27 3.2 6.4 0.00 0.00 0.00 70 1023.6
20260510001858 22 232 1.6 11.3 0.00 0.00 0.00 70 1023.8
20260510000857 22 74 8.0 8.0 0.00 0.00 0.00 70 1024.0
20260510000550 22 84 0.0 6.4 0.00 0.00 0.00 70 1024.0
20260509235550 22 72 8.0 8.0 0.00 0.00 0.00 70 1024.4
20260509235055 22 75 0.0 4.8 0.00 0.00 0.00 70 1024.3
20260509234054 22 105 0.0 3.2 0.00 0.00 0.00 70 1024.3
20260509233053 22 84 3.2 8.0 0.00 0.00 0.00 70 1024.3
20260509232052 22 235 3.2 6.4 0.00 0.00 0.00 70 1024.1
20260509231051 21 97 3.2 4.8 0.00 0.00 0.00 70 1023.7
20260509230050 21 142 0.0 4.8 0.00 0.00 0.00 70 1024.0
20260509225049 21 163 3.2 3.2 0.00 0.00 0.00 70 1023.8
20260509224048 20 215 4.8 6.4 0.00 0.00 0.00 70 1023.0
20260509223047 20 100 1.6 6.4 0.00 0.00 0.00 70 1022.9
20260509222047 20 71 0.0 6.4 0.00 0.00 0.00 70 1022.9
20260509221654 20 143 8.0 8.0 0.00 0.00 0.00 70 1023.1
20260509220722 20 93 0.0 6.4 0.00 0.00 0.00 70 1023.1
20260509215721 20 103 1.6 3.2 0.00 0.00 0.00 70 1023.2
20260509214720 20 146 6.4 6.4 0.00 0.00 0.00 70 1023.1
20260509213718 19 15 1.6 3.2 0.00 0.00 0.00 70 1022.8
20260509212717 19 45 0.0 1.6 0.00 0.00 0.00 70 1023.0
20260509211716 18 135 0.0 1.6 0.00 0.00 0.00 70 1023.1
20260509210715 18 187 3.2 4.8 0.00 0.00 0.00 70 1022.9
20260509205714 18 241 1.6 1.6 0.00 0.00 0.00 70 1022.5
20260509204713 18 144 0.0 1.6 0.00 0.00 0.00 70 1022.4
20260509203712 18 90 0.0 3.2 0.00 0.00 0.00 70 1022.6
20260509201710 18 243 0.0 1.6 0.00 0.00 0.00 70 1022.3
20260509200709 18 268 0.0 1.6 0.00 0.00 0.00 70 1021.9
20260509195708 18 205 0.0 0.0 0.00 0.00 0.00 70 1022.1
20260509194707 18 85 1.6 4.8 0.00 0.00 0.00 70 1022.1
20260509193705 18 135 0.0 1.6 0.00 0.00 0.00 70 1022.2
20260509192704 18 143 1.6 1.6 0.00 0.00 0.00 70 1021.9
20260509191703 18 228 0.0 3.2 0.00 0.00 0.00 70 1021.9
20260509190702 18 85 0.0 1.6 0.00 0.00 0.00 70 1021.9
20260509185701 18 159 0.0 1.6 0.00 0.00 0.00 70 1021.8
20260509184700 18 106 1.6 3.2 0.00 0.00 0.00 70 1021.5
20260509183659 18 285 0.0 3.2 0.00 0.00 0.00 70 1021.5
20260509182658 18 136 0.0 3.2 0.00 0.00 0.00 70 1021.5
20260509181657 18 97 0.0 3.2 0.00 0.00 0.00 70 1021.4
20260509180656 18 45 0.0 3.2 0.00 0.00 0.00 70 1021.1
20260509175655 18 173 1.6 6.4 0.00 0.00 0.00 70 1021.0
20260509174654 18 171 1.6 1.6 0.00 0.00 0.00 70 1020.9
20260509173653 17 166 0.0 6.4 0.00 0.00 0.00 70 1020.8
20260509172652 17 135 0.0 0.0 0.00 0.00 0.00 70 1020.9
20260509171651 17 151 1.6 4.8 0.00 0.00 0.00 70 1021.1
20260509170650 16 314 0.0 1.6 0.00 0.00 0.00 70 1021.0
20260509165648 16 132 0.0 1.6 0.00 0.00 0.00 70 1020.9
20260509164647 16 45 0.0 0.0 0.00 0.00 0.00 70 1021.1
20260509163646 16 90 0.0 0.0 0.00 0.00 0.00 70 1021.2
20260509162645 16 45 0.0 0.0 0.00 0.00 0.00 70 1021.2
20260509161644 16 45 0.0 0.0 0.00 0.00 0.00 70 1021.3
20260509160643 16 90 0.0 0.0 0.00 0.00 0.00 70 1021.4
20260509155642 16 91 0.0 0.0 0.00 0.00 0.00 70 1021.4
20260509154641 16 90 0.0 0.0 0.00 0.00 0.00 70 1021.5
20260509153640 17 180 0.0 0.0 0.00 0.00 0.00 70 1021.4
20260509152639 17 45 0.0 0.0 0.00 0.00 0.00 70 1021.5
20260509151638 17 248 0.0 3.2 0.00 0.00 0.00 70 1021.4
20260509150637 17 138 0.0 1.6 0.00 0.00 0.00 70 1021.7
20260509145635 17 69 0.0 1.6 0.00 0.00 0.00 70 1021.6
20260509144634 17 253 0.0 3.2 0.00 0.00 0.00 70 1021.7
20260509143634 17 94 0.0 1.6 0.00 0.00 0.00 70 1021.6
20260509142633 17 135 0.0 1.6 0.00 0.00 0.00 70 1021.8
20260509141631 17 180 0.0 1.6 0.00 0.00 0.00 70 1021.9
20260509140630 17 155 0.0 1.6 0.00 0.00 0.00 70 1021.9
20260509135629 17 135 0.0 3.2 0.00 0.00 0.00 70 1021.9
20260509134628 18 117 0.0 0.0 0.00 0.00 0.00 70 1022.2
20260509133627 18 270 0.0 1.6 0.00 0.00 0.00 70 1022.1
20260509132626 18 93 0.0 3.2 0.00 0.00 0.00 70 1022.2
20260509131625 18 144 0.0 3.2 0.00 0.00 0.00 70 1022.2
20260509130624 18 204 0.0 1.6 0.00 0.00 0.00 70 1022.2
20260509125623 17 153 0.0 3.2 0.00 0.00 0.00 70 1022.2
20260509124622 18 276 0.0 1.6 0.00 0.00 0.00 70 1022.1
20260509123621 18 154 0.0 0.0 0.00 0.00 0.00 70 1022.1
20260509122620 18 106 0.0 1.6 0.00 0.00 0.00 70 1022.0
20260509121618 18 142 1.6 1.6 0.00 0.00 0.00 70 1021.9
20260509120617 18 45 0.0 1.6 0.00 0.00 0.00 70 1022.1
20260509115616 19 133 0.0 1.6 0.00 0.00 0.00 70 1022.0
20260509114615 19 352 0.0 1.6 0.00 0.00 0.00 70 1021.9
20260509113614 20 135 0.0 3.2 0.00 0.00 0.00 70 1022.2
20260509112613 21 240 0.0 1.6 0.00 0.00 0.00 70 1022.0
20260509111612 21 94 3.2 3.2 0.00 0.00 0.00 70 1022.1
20260509110611 21 20 1.6 4.8 0.00 0.00 0.00 70 1022.0
20260509105610 21 45 0.0 3.2 0.00 0.00 0.00 70 1022.1
20260509104609 21 61 1.6 4.8 0.00 0.00 0.00 70 1022.2
20260509103608 21 51 1.6 6.4 0.00 0.00 0.00 70 1022.0
20260509102607 21 76 1.6 6.4 0.00 0.00 0.00 70 1021.9
20260509101605 21 63 3.2 4.8 0.00 0.00 0.00 70 1022.0
20260509100605 21 34 0.0 8.0 0.00 0.00 0.00 70 1021.7
20260509100304 21 32 9.7 9.7 0.00 0.00 0.00 70 1021.8
20260509095556 21 48 0.0 4.8 0.00 0.00 0.00 70 1021.7
20260509094554 21 188 1.6 6.4 0.00 0.00 0.00 70 1021.5
20260509093553 21 85 0.0 3.2 0.00 0.00 0.00 70 1021.4
20260509092552 21 58 1.6 8.0 0.00 0.00 0.00 70 1021.2
20260509091551 21 56 3.2 4.8 0.00 0.00 0.00 70 1021.0
20260509090550 21 51 3.2 4.8 0.00 0.00 0.00 70 1020.9
20260509085550 21 68 0.0 4.8 0.00 0.00 0.00 70 1020.8
20260509085038 21 92 8.0 8.0 0.00 0.00 0.00 70 1020.6
20260509084336 21 65 0.0 4.8 0.00 0.00 0.00 70 1020.6
20260509083335 21 70 3.2 6.4 0.00 0.00 0.00 70 1020.5
20260509082334 21 26 3.2 6.4 0.00 0.00 0.00 70 1020.5
20260509081333 21 53 1.6 6.4 0.00 0.00 0.00 70 1020.4
20260509080332 21 55 0.0 4.8 0.00 0.00 0.00 70 1020.2
20260509075330 21 45 1.6 3.2 0.00 0.00 0.00 70 1020.1
20260509074329 22 68 1.6 3.2 0.00 0.00 0.00 70 1020.0
20260509073328 22 45 0.0 1.6 0.00 0.00 0.00 70 1019.8
20260509072327 22 45 0.0 1.6 0.00 0.00 0.00 70 1019.6